Simultaneous Nadir Overpasses (SNOs) Predictions

Prediction of SNOs between GOES-16 and TERRA Satellite Orbit:

Table of predicted SNOs for the next 14.0 days since TLE Epoch: 2/3/2018
Index Date Time (GOES-16) GOES-16 Lat,Lon TERRA Lat,Lon Distance(km) Time Diff (sec)
1 02/03/2018 15:42:23 -0.01, -75.19 0.64, -78.20 342.61 80
2 02/05/2018 15:30:12 -0.01, -75.21 0.01, -75.25 4.86 80
3 02/07/2018 15:20:41 -0.01, -75.23 -0.62, -72.29 333.56 80
4 02/08/2018 03:42:06 0.01, -75.21 -0.45, -77.49 259.47 80
5 02/10/2018 03:29:55 0.02, -75.23 0.18, -74.54 79.44 80
6 02/12/2018 03:17:44 0.02, -75.26 0.80, -71.58 418.74 80
7 02/12/2018 15:36:20 -0.02, -75.30 0.27, -76.74 163.68 80
8 02/14/2018 15:26:49 -0.02, -75.34 -0.35, -73.79 176.31 80
9 02/15/2018 03:45:32 0.03, -75.32 -0.78, -78.97 416.09 80




NCC Satellite Simultaneous Nadir Overpasses (SNOs) Prediction Service
